This is the latest recevied weather packets stored in our database for station/object K5KHP. If no packets are shown the sender has not sent any weather packets the latest 10 day(s).
| Time | Temp. | Humidity | Pressure | Rain* | Wind** | Luminosity | Snow |
|---|---|---|---|---|---|---|---|
| 1777681892 | 19.44° C | 75% | 1011.6 hPa | 0 mm | - | 196 W/m² | - |
| 1777681588 | 19.44° C | 73% | 1011.6 hPa | 0 mm | - | 217 W/m² | - |
| 1777681286 | 19.44° C | 74% | 1011.5 hPa | 0 mm | - | 220 W/m² | - |
| 1777680984 | 20° C | 73% | 1011.6 hPa | 0 mm | - | 229 W/m² | - |
| 1777680681 | 20.56° C | 71% | 1011.7 hPa | 0 mm | - | 217 W/m² | - |
| 1777680379 | 20° C | 74% | 1011.8 hPa | 0 mm | - | 248 W/m² | - |
| 1777680076 | 19.44° C | 74% | 1011.7 hPa | 0 mm | - | 274 W/m² | - |
| 1777679772 | 20° C | 73% | 1011.6 hPa | 0 mm | - | 285 W/m² | - |
| 1777679468 | 20.56° C | 72% | 1011.7 hPa | 0 mm | - | 313 W/m² | - |
| 1777679164 | 20° C | 72% | 1011.8 hPa | 0 mm | - | 304 W/m² | - |
| 1777678861 | 20° C | 73% | 1011.7 hPa | 0 mm | - | 333 W/m² | - |
| 1777678559 | 20.56° C | 72% | 1012 hPa | 0 mm | - | 327 W/m² | - |
| 1777678256 | 20° C | 73% | 1011.9 hPa | 0 mm | - | 332 W/m² | - |
| 1777677952 | 20.56° C | 71% | 1011.7 hPa | 0 mm | - | 344 W/m² | - |
| 1777677649 | 20° C | 72% | 1011.8 hPa | 0 mm | - | 341 W/m² | - |
| 1777677347 | 20.56° C | 71% | 1011.8 hPa | 0 mm | - | 360 W/m² | - |
| 1777677045 | 20.56° C | 72% | 1012.1 hPa | 0 mm | - | 373 W/m² | - |
| 1777676744 | 20.56° C | 70% | 1011.9 hPa | 0 mm | - | 374 W/m² | - |
| 1777676441 | 20.56° C | 70% | 1012 hPa | 0 mm | - | 382 W/m² | - |
| 1777676139 | 21.11° C | 67% | 1012.2 hPa | 0 mm | - | 386 W/m² | - |
| 1777675835 | 21.11° C | 69% | 1012.2 hPa | 0 mm | - | 387 W/m² | - |
| 1777675532 | 20.56° C | 70% | 1011.9 hPa | 0 mm | - | 406 W/m² | - |
| 1777675229 | 20.56° C | 70% | 1012.1 hPa | 0 mm | - | 423 W/m² | - |
| 1777674926 | 20.56° C | 70% | 1012.4 hPa | 0 mm | - | 451 W/m² | - |
| 1777674622 | 20.56° C | 70% | 1012.3 hPa | 0 mm | - | 475 W/m² | - |
* Rain latest hour (hover to see other rain measurements)
** Current wind speed in m/s (hover to see current wind gust speed)